| time (UTC) | temp F | wind direction | speed MPH | gust MPH | rain 1hr in | rain 24hr in | rain mn in | humidity % | barometer mb |
| 20260506134518 | 67 | 359 | 7.0 | 13.0 | 0.00 | 0.31 | 0.01 | 60 | 1003.6 |
| 20260506133516 | 66 | 355 | 7.0 | 11.0 | 0.00 | 0.31 | 0.01 | 62 | 1003.7 |
| 20260506132515 | 65 | 354 | 6.0 | 10.0 | 0.00 | 0.31 | 0.01 | 62 | 1003.9 |
| 20260506131516 | 65 | 352 | 4.0 | 9.0 | 0.00 | 0.31 | 0.01 | 63 | 1004.1 |
| 20260506130515 | 66 | 341 | 6.0 | 11.0 | 0.00 | 0.31 | 0.01 | 62 | 1004.1 |
| 20260506125535 | 67 | 350 | 4.0 | 8.0 | 0.00 | 0.31 | 0.01 | 59 | 1004.2 |
| 20260506124516 | 67 | 69 | 3.0 | 7.0 | 0.00 | 0.31 | 0.01 | 58 | 1004.4 |
| 20260506123517 | 66 | 41 | 4.0 | 8.0 | 0.00 | 0.31 | 0.01 | 57 | 1004.5 |
| 20260506122537 | 66 | 66 | 3.0 | 9.0 | 0.00 | 0.31 | 0.01 | 59 | 1004.5 |
| 20260506121556 | 67 | 64 | 4.0 | 10.0 | 0.00 | 0.31 | 0.01 | 60 | 1004.5 |
| 20260506120537 | 64 | 33 | 6.0 | 10.0 | 0.00 | 0.31 | 0.01 | 61 | 1004.8 |
| 20260506115515 | 64 | 58 | 4.0 | 10.0 | 0.00 | 0.31 | 0.01 | 61 | 1004.9 |
| 20260506114516 | 64 | 53 | 4.0 | 8.0 | 0.00 | 0.31 | 0.01 | 62 | 1005.0 |
| 20260506113517 | 64 | 90 | 3.0 | 8.0 | 0.00 | 0.31 | 0.01 | 62 | 1005.2 |
| 20260506112536 | 64 | 72 | 4.0 | 9.0 | 0.00 | 0.31 | 0.01 | 62 | 1005.2 |
| 20260506111516 | 64 | 20 | 4.0 | 10.0 | 0.00 | 0.31 | 0.01 | 62 | 1005.3 |
| 20260506110517 | 63 | 32 | 3.0 | 8.0 | 0.00 | 0.31 | 0.01 | 62 | 1005.4 |
| 20260506105516 | 64 | 52 | 5.0 | 12.0 | 0.00 | 0.31 | 0.01 | 62 | 1005.6 |
| 20260506104516 | 63 | 63 | 5.0 | 10.0 | 0.00 | 0.31 | 0.01 | 62 | 1005.8 |
| 20260506103517 | 63 | 29 | 4.0 | 10.0 | 0.00 | 0.31 | 0.01 | 66 | 1006.0 |
| 20260506102516 | 63 | 37 | 3.0 | 7.0 | 0.00 | 0.31 | 0.01 | 66 | 1006.0 |
| 20260506101517 | 63 | 23 | 3.0 | 8.0 | 0.00 | 0.31 | 0.01 | 65 | 1006.2 |
| 20260506100537 | 63 | 30 | 2.0 | 5.0 | 0.00 | 0.31 | 0.01 | 67 | 1006.2 |
| 20260506095515 | 62 | 7 | 2.0 | 6.0 | 0.00 | 0.31 | 0.01 | 67 | 1006.2 |
| 20260506094516 | 62 | 350 | 4.0 | 8.0 | 0.00 | 0.31 | 0.01 | 68 | 1006.2 |
| 20260506093517 | 62 | 354 | 2.0 | 7.0 | 0.00 | 0.31 | 0.01 | 68 | 1006.2 |
| 20260506092517 | 62 | 9 | 2.0 | 5.0 | 0.00 | 0.31 | 0.01 | 67 | 1006.2 |
| 20260506091515 | 61 | 319 | 2.0 | 6.0 | 0.00 | 0.31 | 0.01 | 69 | 1006.2 |
| 20260506090518 | 62 | 330 | 3.0 | 8.0 | 0.00 | 0.31 | 0.01 | 67 | 1006.2 |
| 20260506085516 | 61 | 9 | 3.0 | 8.0 | 0.00 | 0.31 | 0.01 | 69 | 1006.3 |
| 20260506084535 | 61 | 8 | 4.0 | 8.0 | 0.00 | 0.31 | 0.01 | 70 | 1006.3 |
| 20260506083517 | 60 | 360 | 2.0 | 7.0 | 0.00 | 0.31 | 0.01 | 69 | 1006.4 |
| 20260506082515 | 60 | 352 | 2.0 | 5.0 | 0.00 | 0.31 | 0.01 | 68 | 1006.5 |
| 20260506081515 | 60 | 332 | 3.0 | 7.0 | 0.00 | 0.31 | 0.01 | 69 | 1006.6 |
| 20260506080536 | 60 | 343 | 3.0 | 5.0 | 0.00 | 0.31 | 0.01 | 69 | 1006.6 |
| 20260506073517 | 59 | 316 | 2.0 | 4.0 | 0.00 | 0.31 | 0.01 | 70 | 1006.7 |
| 20260506072517 | 59 | 22 | 3.0 | 5.0 | 0.00 | 0.31 | 0.01 | 74 | 1006.9 |
| 20260506071515 | 58 | 97 | 1.0 | 3.0 | 0.00 | 0.31 | 0.01 | 76 | 1007.0 |
| 20260506070516 | 57 | 0.0 | 0.0 | 0.00 | 0.31 | 0.01 | 77 | 1007.0 | |
| 20260506061517 | 54 | 0.0 | 0.0 | 0.00 | 0.31 | 0.01 | 89 | 1007.2 | |
| 20260506060516 | 54 | 0.0 | 0.0 | 0.00 | 0.31 | 0.01 | 90 | 1007.3 | |
| 20260506050517 | 49 | 147 | 1.0 | 3.0 | 0.00 | 0.31 | 0.01 | 92 | 1007.6 |
| 20260506044517 | 49 | 146 | 1.0 | 2.0 | 0.00 | 0.31 | 0.01 | 92 | 1007.3 |
| 20260506043517 | 49 | 146 | 1.0 | 2.0 | 0.00 | 0.31 | 0.01 | 92 | 1007.4 |
| 20260506042537 | 49 | 0.0 | 0.0 | 0.00 | 0.31 | 0.01 | 92 | 1007.6 | |
| 20260506041517 | 49 | 146 | 0.0 | 1.0 | 0.00 | 0.31 | 0.01 | 92 | 1007.7 |
| 20260506040515 | 49 | 146 | 1.0 | 1.0 | 0.00 | 0.31 | 0.01 | 91 | 1007.7 |
| 20260506035517 | 49 | 0.0 | 0.0 | 0.00 | 0.31 | 0.01 | 91 | 1007.6 | |
| 20260506034515 | 49 | 146 | 0.0 | 1.0 | 0.00 | 0.31 | 0.01 | 91 | 1007.7 |
| 20260506033517 | 49 | 0.0 | 0.0 | 0.00 | 0.31 | 0.01 | 91 | 1007.8 | |
| 20260506032516 | 49 | 146 | 0.0 | 2.0 | 0.00 | 0.31 | 0.01 | 91 | 1007.8 |
| 20260506031517 | 49 | 146 | 0.0 | 1.0 | 0.00 | 0.31 | 0.01 | 91 | 1008.0 |
| 20260506030516 | 49 | 147 | 1.0 | 2.0 | 0.00 | 0.31 | 0.01 | 91 | 1008.2 |
| 20260506025515 | 49 | 147 | 1.0 | 2.0 | 0.00 | 0.31 | 0.01 | 91 | 1008.3 |
| 20260506024518 | 49 | 147 | 1.0 | 3.0 | 0.00 | 0.31 | 0.01 | 91 | 1008.3 |
| 20260506023515 | 49 | 139 | 2.0 | 3.0 | 0.00 | 0.31 | 0.01 | 91 | 1008.4 |
| 20260506022516 | 49 | 127 | 1.0 | 2.0 | 0.00 | 0.31 | 0.01 | 91 | 1008.3 |
| 20260506021515 | 49 | 128 | 2.0 | 4.0 | 0.00 | 0.31 | 0.01 | 91 | 1008.2 |
| 20260506020518 | 49 | 131 | 1.0 | 3.0 | 0.00 | 0.31 | 0.01 | 91 | 1008.3 |
| 20260506015516 | 49 | 131 | 1.0 | 2.0 | 0.00 | 0.31 | 0.01 | 91 | 1008.4 |
| 20260506014517 | 49 | 130 | 1.0 | 2.0 | 0.00 | 0.31 | 0.01 | 91 | 1008.3 |
| 20260506013517 | 50 | 130 | 2.0 | 3.0 | 0.00 | 0.31 | 0.01 | 91 | 1008.4 |
| 20260506012520 | 50 | 156 | 2.0 | 4.0 | 0.00 | 0.31 | 0.01 | 91 | 1008.5 |
| 20260506011537 | 50 | 170 | 0.0 | 1.0 | 0.01 | 0.31 | 0.01 | 91 | 1008.6 |
| 20260506010516 | 50 | 170 | 1.0 | 2.0 | 0.01 | 0.31 | 0.01 | 91 | 1008.5 |
| 20260506005530 | 51 | 179 | 1.0 | 2.0 | 0.01 | 0.31 | 0.01 | 91 | 1008.5 |
| 20260506004517 | 51 | 179 | 0.0 | 2.0 | 0.01 | 0.31 | 0.01 | 90 | 1008.5 |
| 20260506003518 | 51 | 179 | 1.0 | 3.0 | 0.01 | 0.31 | 0.01 | 90 | 1008.7 |
| 20260506002516 | 51 | 181 | 2.0 | 3.0 | 0.01 | 0.31 | 0.01 | 90 | 1008.7 |
| 20260506001515 | 52 | 181 | 2.0 | 5.0 | 0.00 | 0.30 | 0.00 | 90 | 1008.8 |
| 20260506000517 | 52 | 197 | 3.0 | 5.0 | 0.00 | 0.30 | 0.00 | 90 | 1008.9 |
| 20260505235559 | 52 | 170 | 3.0 | 6.0 | 0.00 | 0.30 | 0.00 | 90 | 1008.9 |
| 20260505234519 | 52 | 176 | 2.0 | 6.0 | 0.00 | 0.30 | 0.00 | 90 | 1008.9 |
| 20260505233517 | 52 | 200 | 3.0 | 6.0 | 0.00 | 0.30 | 0.00 | 90 | 1009.1 |
| 20260505232519 | 53 | 204 | 4.0 | 7.0 | 0.00 | 0.30 | 0.00 | 90 | 1009.1 |
| 20260505231516 | 53 | 200 | 4.0 | 7.0 | 0.00 | 0.30 | 0.00 | 90 | 1009.2 |
| 20260505230515 | 53 | 200 | 5.0 | 10.0 | 0.00 | 0.30 | 0.00 | 90 | 1009.2 |
| 20260505225557 | 53 | 204 | 4.0 | 8.0 | 0.00 | 0.30 | 0.00 | 90 | 1009.2 |
| 20260505224517 | 53 | 206 | 4.0 | 7.0 | 0.00 | 0.30 | 0.00 | 90 | 1009.0 |
| 20260505223518 | 54 | 197 | 4.0 | 9.0 | 0.02 | 0.30 | 0.00 | 90 | 1009.1 |
| 20260505222516 | 54 | 200 | 6.0 | 11.0 | 0.05 | 0.30 | 0.00 | 90 | 1009.3 |
| 20260505221517 | 54 | 203 | 7.0 | 16.0 | 0.06 | 0.30 | 0.00 | 90 | 1009.5 |
| 20260505220516 | 54 | 197 | 6.0 | 10.0 | 0.07 | 0.30 | 0.00 | 90 | 1009.5 |
| 20260505215515 | 54 | 210 | 7.0 | 13.0 | 0.12 | 0.30 | 0.30 | 89 | 1009.5 |
| 20260505214516 | 54 | 219 | 8.0 | 13.0 | 0.15 | 0.30 | 0.30 | 89 | 1009.6 |
| 20260505213515 | 54 | 210 | 7.0 | 14.0 | 0.13 | 0.28 | 0.28 | 89 | 1009.6 |
| 20260505212517 | 54 | 214 | 6.0 | 12.0 | 0.10 | 0.25 | 0.25 | 88 | 1009.6 |
| 20260505211516 | 54 | 229 | 4.0 | 10.0 | 0.09 | 0.24 | 0.24 | 88 | 1009.3 |
| 20260505210517 | 55 | 242 | 6.0 | 11.0 | 0.08 | 0.23 | 0.23 | 87 | 1009.2 |
| 20260505205516 | 55 | 230 | 7.0 | 15.0 | 0.03 | 0.18 | 0.18 | 85 | 1009.2 |
| 20260505204515 | 56 | 229 | 8.0 | 14.0 | 0.00 | 0.15 | 0.15 | 84 | 1009.0 |
| 20260505203516 | 56 | 233 | 5.0 | 11.0 | 0.00 | 0.15 | 0.15 | 84 | 1008.9 |
| 20260505202516 | 56 | 224 | 5.0 | 13.0 | 0.00 | 0.15 | 0.15 | 84 | 1008.8 |
| 20260505201516 | 56 | 232 | 5.0 | 11.0 | 0.00 | 0.15 | 0.15 | 85 | 1008.6 |
| 20260505200516 | 56 | 245 | 4.0 | 13.0 | 0.00 | 0.15 | 0.15 | 87 | 1008.2 |
| 20260505195517 | 57 | 223 | 1.0 | 3.0 | 0.00 | 0.15 | 0.15 | 86 | 1007.8 |
| 20260505194517 | 57 | 209 | 1.0 | 3.0 | 0.00 | 0.15 | 0.15 | 85 | 1007.6 |
| 20260505193535 | 57 | 209 | 1.0 | 2.0 | 0.00 | 0.15 | 0.15 | 84 | 1007.4 |
| 20260505192516 | 57 | 210 | 1.0 | 3.0 | 0.00 | 0.15 | 0.15 | 83 | 1007.3 |
| 20260505191516 | 57 | 229 | 1.0 | 2.0 | 0.00 | 0.15 | 0.15 | 82 | 1007.1 |
| 20260505190517 | 58 | 229 | 0.0 | 2.0 | 0.00 | 0.15 | 0.15 | 81 | 1007.0 |
| 20260505185536 | 58 | 256 | 2.0 | 3.0 | 0.00 | 0.15 | 0.15 | 80 | 1007.1 |
| 20260505184559 | 58 | 267 | 3.0 | 7.0 | 0.00 | 0.15 | 0.15 | 78 | 1007.0 |
| 20260505183515 | 58 | 274 | 5.0 | 10.0 | 0.00 | 0.15 | 0.15 | 78 | 1006.8 |
| 20260505182515 | 58 | 279 | 4.0 | 8.0 | 0.00 | 0.15 | 0.15 | 80 | 1006.6 |
| 20260505181520 | 59 | 272 | 5.0 | 10.0 | 0.00 | 0.15 | 0.15 | 81 | 1006.7 |
| 20260505180516 | 59 | 283 | 4.0 | 7.0 | 0.00 | 0.15 | 0.15 | 81 | 1006.4 |
| 20260505175517 | 60 | 285 | 3.0 | 6.0 | 0.00 | 0.15 | 0.15 | 79 | 1006.3 |
| 20260505174538 | 61 | 299 | 3.0 | 8.0 | 0.00 | 0.15 | 0.15 | 77 | 1006.2 |
| 20260505173603 | 62 | 285 | 4.0 | 8.0 | 0.00 | 0.15 | 0.15 | 77 | 1006.1 |
| 20260505172515 | 62 | 291 | 3.0 | 9.0 | 0.00 | 0.15 | 0.15 | 76 | 1006.1 |
| 20260505171517 | 62 | 296 | 2.0 | 7.0 | 0.00 | 0.15 | 0.15 | 77 | 1006.1 |
| 20260505170516 | 62 | 284 | 3.0 | 7.0 | 0.00 | 0.15 | 0.15 | 78 | 1006.0 |
| 20260505165515 | 61 | 338 | 4.0 | 7.0 | 0.00 | 0.15 | 0.15 | 78 | 1006.0 |
| 20260505164540 | 61 | 333 | 3.0 | 7.0 | 0.00 | 0.15 | 0.15 | 78 | 1006.0 |
| 20260505163516 | 60 | 327 | 4.0 | 8.0 | 0.00 | 0.15 | 0.15 | 79 | 1006.1 |
| 20260505162517 | 60 | 344 | 3.0 | 5.0 | 0.00 | 0.15 | 0.15 | 81 | 1006.0 |
| 20260505161515 | 59 | 25 | 2.0 | 4.0 | 0.01 | 0.15 | 0.15 | 82 | 1006.0 |
| 20260505160538 | 59 | 7 | 2.0 | 5.0 | 0.02 | 0.15 | 0.15 | 83 | 1006.1 |
| 20260505152536 | 58 | 205 | 2.0 | 5.0 | 0.11 | 0.15 | 0.15 | 84 | 1006.7 |
| 20260505151517 | 58 | 268 | 2.0 | 4.0 | 0.14 | 0.14 | 0.14 | 85 | 1006.8 |
| 20260505150516 | 58 | 230 | 3.0 | 7.0 | 0.13 | 0.13 | 0.13 | 84 | 1006.9 |
| 20260505140517 | 72 | 267 | 3.0 | 8.0 | 0.00 | 0.00 | 0.00 | 48 | 1005.6 |